Temperature
-0 -0 -0 -0 -0 -0 -1 -1 -2 -4 -4 -3 -2 -2 -3 -4 -4 -5 -5 -6 -6 -6 -6 -6 -6 -6 -6 -6 -6 -6 -6 -6 -6 -6 -5 -5 -5 -4
-1 -2 -2 -1 -1 -1 -1 -2 -2 -3 -4 -3 -2 -2 -3 -4 -4 -5 -6 -6 -6 -6 -6 -6 -6 -6 -6 -6 -6 -6 -6 -6 -6 -6 -6 -5 -5 -4
-2 -2 -2 -2 -3 -2 -2 -2 -3 -3 -4 -4 -3 -3 -3 -4 -4 -5 -5 -6 -6 -6 -7 -7 -7 -7 -7 -7 -7 -7 -6 -6 -6 -6 -6 -5 -5 -5
-2 -3 -3 -3 -3 -3 -3 -3 -3 -3 -4 -5 -4 -4 -4 -4 -5 -5 -6 -6 -7 -7 -7 -7 -7 -7 -7 -7 -7 -7 -7 -7 -7 -7 -6 -6 -6 -5
-2 -3 -3 -4 -4 -4 -4 -4 -3 -4 -4 -5 -5 -5 -4 -5 -6 -6 -6 -7 -7 -7 -7 -7 -7 -7 -7 -7 -7 -7 -7 -7 -7 -7 -7 -7 -6 -6
-3 -3 -4 -4 -4 -4 -4 -4 -4 -4 -5 -6 -6 -6 -6 -5 -7 -7 -7 -7 -7 -7 -7 -8 -8 -8 -8 -8 -8 -8 -8 -8 -8 -7 -7 -7 -7 -6
-3 -4 -5 -5 -5 -5 -5 -5 -4 -5 -5 -6 -6 -7 -6 -6 -7 -7 -7 -7 -7 -7 -8 -8 -8 -8 -8 -9 -9 -9 -9 -9 -8 -8 -8 -7 -7 -7
-4 -4 -5 -6 -6 -6 -6 -5 -5 -5 -5 -6 -6 -7 -6 -6 -7 -7 -8 -8 -8 -7 -8 -8 -9 -9 -9 -9 -9 -9 -9 -9 -8 -8 -8 -7 -7 -7
-4 -5 -6 -6 -7 -6 -6 -6 -6 -5 -5 -6 -6 -6 -6 -6 -7 -7 -8 -8 -8 -8 -9 -9 -9 -9 -9 -9 -9 -9 -9 -9 -8 -8 -8 -7 -7 -7
-5 -5 -6 -7 -7 -6 -6 -6 -5 -5 -5 -6 -6 -6 -6 -7 -7 -7 -8 -8 -8 -8 -9 -10 -9 -10 -10 -10 -10 -10 -9 -9 -9 -8 -8 -7 -7 -7
-5 -6 -6 -7 -7 -7 -7 -6 -6 -5 -5 -6 -6 -6 -7 -7 -7 -7 -8 -8 -9 -9 -9 -10 -10 -10 -10 -10 -10 -10 -10 -9 -9 -8 -8 -7 -7 -6
-5 -6 -6 -7 -7 -7 -7 -6 -6 -5 -5 -6 -6 -7 -7 -7 -8 -8 -8 -9 -9 -10 -10 -10 -11 -11 -11 -11 -10 -10 -10 -10 -10 -9 -8 -8 -7 -6
-6 -6 -6 -6 -6 -6 -6 -6 -6 -5 -6 -6 -7 -7 -7 -7 -7 -8 -9 -9 -10 -10 -10 -11 -11 -12 -12 -12 -11 -11 -11 -10 -10 -9 -9 -8 -7 -6
-6 -6 -6 -6 -6 -6 -6 -6 -6 -6 -6 -7 -7 -7 -7 -7 -8 -8 -9 -9 -10 -10 -10 -11 -12 -12 -12 -12 -12 -11 -11 -11 -10 -10 -9 -8 -7 -6
-6 -6 -6 -6 -6 -6 -6 -6 -6 -6 -7 -7 -7 -7 -7 -8 -8 -9 -9 -9 -10 -10 -10 -11 -11 -12 -12 -12 -12 -12 -11 -10 -10 -9 -8 -8 -7 -6
-6 -6 -6 -6 -6 -6 -6 -6 -6 -6 -7 -7 -7 -7 -8 -8 -9 -9 -10 -10 -10 -10 -10 -11 -11 -12 -12 -12 -12 -11 -11 -11 -10 -10 -9 -8 -6 -6
-6 -6 -6 -6 -6 -6 -6 -6 -6 -6 -7 -7 -7 -8 -8 -9 -9 -9 -10 -10 -11 -11 -11 -10 -11 -11 -11 -11 -11 -11 -10 -10 -10 -9 -9 -8 -6 -5
-6 -6 -6 -6 -6 -6 -6 -6 -6 -6 -7 -7 -8 -8 -9 -9 -9 -10 -10 -11 -11 -11 -11 -11 -11 -11 -11 -11 -10 -10 -10 -9 -9 -9 -9 -8 -6 -4
-6 -6 -6 -6 -6 -6 -6 -6 -6 -6 -7 -7 -8 -8 -9 -9 -10 -10 -11 -11 -11 -11 -11 -11 -11 -12 -12 -12 -10 -10 -10 -9 -9 -8 -8 -7 -6 -4
-6 -6 -6 -6 -6 -6 -6 -6 -7 -7 -7 -8 -8 -8 -9 -10 -10 -10 -11 -11 -11 -11 -11 -11 -11 -12 -12 -12 -12 -10 -9 -9 -9 -8 -7 -6 -5 -4
-6 -6 -6 -6 -6 -6 -6 -7 -7 -7 -7 -8 -8 -9 -9 -10 -10 -10 -11 -11 -11 -11 -11 -11 -11 -11 -12 -12 -11 -10 -9 -9 -9 -8 -7 -7 -5 -4
-6 -6 -6 -6 -6 -7 -7 -7 -7 -7 -8 -8 -8 -9 -9 -10 -10 -11 -11 -11 -11 -11 -11 -11 -11 -11 -11 -12 -11 -11 -9 -8 -7 -7 -7 -6 -6 -4
-6 -6 -6 -6 -7 -7 -7 -7 -7 -7 -8 -8 -8 -9 -9 -10 -10 -10 -11 -11 -11 -11 -11 -11 -11 -11 -11 -11 -11 -10 -9 -8 -7 -6 -6 -5 -4 -4
Wind_Speed
16 17 14 11 10 9 8 8 8 7 8 8 7 7 11 12 17 18 19 26 30 32 33 34 35 36 37 37 38 38 39 39 40 40 40 41 42 42
13 15 16 13 11 10 10 9 10 10 7 6 7 5 6 13 20 20 20 27 31 33 34 35 35 36 37 38 38 39 40 40 41 41 42 42 43 43
16 17 18 15 13 12 11 10 12 11 14 9 7 8 9 11 13 17 21 21 24 31 34 35 35 36 37 38 39 40 40 41 41 42 42 42 43 43
19 18 18 16 17 14 13 13 13 13 13 14 10 9 11 10 11 13 15 20 20 28 32 34 35 36 37 38 39 39 40 41 41 41 42 42 42 42
19 19 18 17 19 16 15 15 13 13 12 12 12 10 10 10 11 13 15 12 18 24 28 30 32 34 36 37 38 39 40 40 41 41 41 41 41 41
18 18 18 19 19 18 17 17 15 13 12 12 12 11 12 10 10 12 12 9 12 15 21 26 30 33 35 37 37 38 39 39 40 39 39 39 39 40
16 18 19 23 27 22 18 15 15 14 13 12 13 12 12 10 10 9 11 11 11 11 12 14 14 14 17 28 33 35 37 38 38 37 37 37 37 38
17 16 18 24 29 34 33 29 23 17 15 14 13 14 14 12 10 9 10 13 15 6 9 14 11 15 13 12 28 35 36 37 37 37 37 37 37 37
16 15 16 19 25 19 26 32 30 32 27 17 16 17 15 11 9 11 13 15 17 10 11 18 12 15 14 18 32 34 35 35 35 36 36 36 36 36
16 16 16 16 18 19 17 17 17 18 20 16 14 14 12 10 10 13 16 16 15 11 9 16 15 15 16 13 27 32 33 33 33 33 34 34 35 36
16 17 18 17 25 29 20 18 18 17 23 27 25 23 26 26 21 13 12 13 17 12 6 10 14 16 16 15 18 28 30 31 31 31 31 32 33 32
13 16 25 24 27 29 20 17 18 16 12 12 16 19 16 18 23 13 10 12 15 13 5 6 11 12 13 10 10 11 15 24 29 31 31 30 30 21
12 12 15 28 30 30 26 17 21 16 10 11 11 10 9 9 10 10 9 10 13 14 8 8 13 14 15 15 14 13 12 13 15 19 24 28 28 23
12 10 13 25 28 29 23 22 25 20 9 8 9 9 8 8 8 8 10 10 12 15 13 12 15 15 16 19 17 11 10 12 13 15 14 21 23 26
11 17 19 23 23 20 24 24 19 11 7 8 9 9 7 7 6 6 7 9 11 13 13 14 15 15 15 17 18 17 16 14 12 12 13 13 13 13
12 16 22 23 19 17 15 13 9 7 8 8 7 6 5 5 6 6 7 7 10 11 11 12 14 15 15 17 17 18 15 12 10 12 13 14 13 13
8 7 9 9 10 9 8 7 7 7 8 6 6 6 6 7 7 6 6 7 10 13 12 9 9 12 15 16 16 16 15 15 13 13 13 14 13 12
12 8 9 10 10 10 9 9 8 8 8 7 6 6 6 7 7 6 7 8 11 11 12 10 10 11 10 10 15 15 14 13 12 12 12 13 13 11
11 8 9 9 10 9 9 8 8 8 7 6 6 6 6 7 7 8 8 9 10 11 10 9 9 10 13 13 8 10 11 11 11 11 11 11 12 12
8 8 8 8 8 8 8 8 7 6 6 6 6 6 6 7 8 8 8 9 11 11 11 9 8 9 11 13 12 11 15 13 12 12 11 10 10 13
8 7 7 7 7 7 8 7 7 7 6 6 6 6 6 7 8 9 9 14 13 10 11 10 10 16 11 9 11 11 9 14 16 13 11 10 9 8
7 7 7 7 7 7 7 7 6 6 7 6 6 6 6 7 8 10 9 10 9 10 11 10 10 10 8 10 13 14 13 12 14 19 19 16 8 4
7 7 7 7 7 7 7 7 8 7 7 6 6 6 6 7 7 8 9 9 9 10 10 10 9 8 9 10 11 12 13 13 10 8 9 14 20 23
Wind_Direction
222 220 222 220 213 211 207 202 206 227 233 221 230 229 231 243 261 268 265 270 275 277 279 280 281 281 281 281 281 281 280 279 278 277 276 274 273 272
220 219 221 220 217 214 214 212 213 222 236 219 224 229 253 266 268 270 268 274 277 279 281 281 281 281 281 281 281 280 279 278 277 275 274 272 271 270
221 221 222 216 217 217 216 216 220 223 242 244 241 251 251 256 268 270 270 270 270 275 277 279 280 281 281 281 281 280 279 278 276 275 273 272 271 270
221 220 221 218 218 217 217 219 223 224 233 247 251 253 252 254 259 264 271 271 267 273 277 279 281 282 282 282 281 280 279 278 276 275 273 272 271 269
220 220 219 216 219 218 218 221 224 229 231 242 251 254 258 258 262 267 266 266 270 276 279 281 282 283 283 283 283 282 280 279 277 274 272 271 269 268
220 220 218 218 219 218 220 222 224 227 231 239 249 254 258 257 258 265 270 264 270 276 279 280 282 284 284 284 284 283 282 280 278 275 272 270 268 266
223 222 221 222 223 222 223 222 222 225 229 237 245 253 256 257 255 257 270 277 272 269 275 275 278 277 278 280 281 282 280 279 277 275 271 269 267 265
226 224 224 230 232 231 230 228 223 223 226 232 240 246 252 251 254 261 272 281 284 252 263 278 276 279 278 273 279 281 280 279 276 274 270 267 265 264
227 225 227 228 229 230 236 237 235 232 229 226 236 244 251 252 257 268 269 271 275 275 283 285 282 281 281 281 284 284 283 282 280 276 272 268 265 264
224 222 224 225 224 224 225 231 237 242 243 241 242 249 253 257 255 262 269 273 275 271 264 282 288 287 287 283 285 284 285 286 284 280 275 271 267 264
225 222 222 223 228 228 224 226 233 239 246 246 247 251 256 262 264 267 271 280 284 282 254 271 285 291 289 284 281 283 286 287 288 288 283 275 270 264
228 223 225 224 226 230 225 222 229 233 229 239 248 257 261 266 271 266 264 273 280 286 253 258 283 295 293 276 268 278 285 287 288 288 287 282 275 267
232 225 221 228 229 230 229 224 230 230 223 230 239 244 245 247 250 247 241 249 267 274 274 278 285 285 282 286 288 282 278 280 284 285 285 283 275 266
231 225 221 225 229 232 233 230 233 238 230 227 236 242 244 247 245 242 240 240 248 264 273 272 279 281 283 284 288 287 279 278 279 280 281 282 276 267
230 226 223 225 227 231 234 234 235 232 220 227 239 244 240 242 246 252 254 255 260 263 268 267 270 274 273 277 283 286 289 287 277 275 280 282 275 267
247 233 228 227 224 220 226 235 228 219 218 229 237 241 243 249 254 256 267 274 280 281 268 262 265 269 274 275 277 280 280 278 279 283 284 283 277 266
232 222 219 217 213 205 206 212 212 219 232 223 229 241 250 258 263 260 265 276 281 288 291 282 268 266 268 273 276 274 276 276 275 278 281 282 279 268
233 225 218 213 210 206 206 209 211 215 218 221 228 237 249 258 268 269 269 274 281 284 288 292 296 295 285 269 255 267 272 275 278 279 277 280 282 276
233 222 216 211 208 205 203 205 209 211 208 214 224 233 246 257 266 272 275 278 281 283 285 288 292 295 299 300 277 264 277 286 286 282 278 276 280 282
225 220 216 208 202 200 201 203 205 204 206 213 222 232 242 256 266 271 274 277 283 287 290 287 284 285 285 289 289 283 282 278 281 283 285 283 278 278
218 215 209 201 197 196 196 198 199 204 208 212 223 232 241 252 263 269 274 281 286 288 290 291 286 293 290 285 282 283 280 279 274 271 279 285 288 282
213 208 202 195 192 192 191 193 198 205 210 217 225 233 240 249 261 268 275 280 283 284 287 290 290 293 287 284 285 289 293 293 287 277 263 258 268 283
210 203 198 192 191 188 188 193 199 209 213 218 225 233 240 253 263 268 274 278 283 287 292 296 297 293 289 286 287 289 290 294 294 288 271 257 253 260
Height
1435 1436 1437 1438 1440 1441 1443 1444 1445 1441 1439 1441 1444 1444 1444 1443 1442 1441 1438 1437 1435 1433 1430 1428 1425 1422 1420 1417 1414 1412 1409 1407 1405 1403 1401 1400 1399 1398
1424 1425 1425 1427 1429 1432 1433 1434 1434 1433 1429 1430 1434 1435 1435 1434 1433 1431 1429 1427 1425 1423 1420 1417 1415 1412 1409 1406 1403 1400 1397 1395 1392 1390 1388 1387 1386 1385
1413 1414 1414 1417 1419 1421 1423 1424 1425 1424 1421 1420 1424 1425 1425 1423 1422 1421 1419 1416 1414 1412 1409 1407 1404 1401 1398 1395 1391 1388 1385 1382 1379 1376 1375 1373 1372 1371
1401 1402 1403 1406 1408 1410 1412 1413 1414 1415 1414 1412 1413 1415 1414 1414 1412 1410 1408 1406 1404 1401 1399 1396 1393 1390 1386 1383 1379 1375 1372 1368 1365 1363 1360 1359 1357 1356
1390 1390 1392 1395 1396 1399 1401 1403 1405 1406 1406 1404 1403 1405 1404 1404 1402 1400 1398 1396 1394 1391 1389 1386 1382 1378 1375 1371 1367 1362 1358 1355 1351 1348 1346 1344 1343 1342
1379 1380 1381 1383 1385 1389 1391 1393 1396 1397 1397 1396 1395 1395 1394 1393 1393 1390 1388 1386 1383 1381 1378 1375 1371 1367 1362 1358 1354 1349 1345 1340 1337 1334 1332 1330 1329 1328
1368 1369 1370 1373 1376 1379 1382 1384 1386 1387 1388 1387 1386 1386 1384 1384 1383 1382 1379 1376 1372 1370 1366 1362 1358 1352 1348 1343 1339 1334 1330 1326 1323 1320 1318 1316 1315 1314
1357 1358 1360 1364 1366 1369 1372 1374 1376 1377 1377 1378 1377 1376 1374 1375 1375 1373 1371 1367 1360 1359 1356 1349 1347 1340 1335 1330 1325 1321 1317 1313 1309 1307 1304 1302 1301 1300
1346 1347 1349 1351 1356 1359 1362 1365 1367 1368 1369 1369 1368 1366 1366 1366 1367 1364 1361 1357 1351 1349 1347 1336 1334 1328 1323 1318 1313 1309 1304 1300 1296 1293 1291 1289 1288 1287
1335 1336 1339 1341 1345 1348 1352 1354 1356 1358 1360 1361 1360 1359 1359 1359 1358 1356 1352 1347 1342 1339 1338 1329 1322 1317 1310 1305 1301 1297 1292 1288 1284 1281 1278 1276 1274 1273
1326 1327 1329 1331 1335 1340 1343 1344 1346 1348 1350 1351 1351 1351 1351 1350 1350 1348 1344 1340 1333 1328 1328 1322 1313 1306 1298 1292 1288 1285 1281 1277 1273 1269 1266 1263 1262 1260
1317 1318 1320 1322 1326 1330 1333 1335 1336 1338 1341 1342 1343 1342 1342 1341 1341 1340 1337 1332 1326 1318 1315 1313 1306 1300 1287 1279 1276 1273 1269 1265 1262 1258 1255 1252 1250 1249
1308 1309 1311 1315 1318 1322 1325 1326 1328 1331 1333 1333 1333 1333 1332 1331 1330 1329 1327 1324 1319 1311 1308 1306 1298 1293 1287 1273 1265 1263 1259 1254 1251 1247 1244 1241 1240 1239
1300 1301 1304 1307 1311 1314 1317 1319 1322 1325 1325 1325 1325 1324 1323 1322 1321 1320 1317 1314 1310 1305 1300 1297 1291 1285 1278 1269 1259 1252 1249 1245 1241 1237 1234 1231 1230 1229
1293 1295 1298 1301 1304 1307 1310 1312 1315 1317 1317 1317 1316 1315 1315 1314 1313 1310 1307 1304 1300 1296 1291 1287 1283 1277 1272 1263 1253 1246 1240 1235 1233 1229 1226 1223 1221 1220
1287 1288 1291 1294 1297 1299 1302 1305 1307 1309 1309 1309 1308 1308 1308 1306 1304 1302 1299 1295 1290 1284 1282 1278 1274 1269 1262 1255 1249 1239 1235 1230 1224 1223 1220 1216 1214 1212
1280 1281 1284 1286 1289 1292 1294 1297 1299 1301 1302 1302 1302 1301 1300 1298 1296 1294 1291 1287 1283 1276 1271 1268 1265 1260 1254 1248 1240 1233 1228 1223 1219 1216 1214 1209 1207 1205
1274 1275 1276 1279 1282 1284 1287 1289 1292 1293 1294 1295 1295 1294 1293 1291 1289 1286 1284 1280 1276 1270 1265 1260 1256 1250 1244 1238 1234 1227 1222 1218 1213 1210 1208 1204 1200 1199
1269 1269 1270 1272 1275 1278 1281 1283 1285 1287 1288 1288 1288 1287 1286 1284 1282 1279 1277 1273 1269 1264 1259 1255 1251 1246 1239 1231 1225 1224 1219 1213 1209 1206 1203 1200 1196 1194
1262 1263 1265 1267 1269 1272 1274 1277 1279 1280 1281 1281 1281 1281 1280 1278 1276 1273 1270 1267 1263 1258 1253 1249 1245 1241 1236 1229 1221 1214 1214 1210 1205 1202 1199 1197 1194 1192
1256 1257 1259 1262 1264 1267 1269 1271 1273 1274 1275 1275 1275 1274 1274 1272 1269 1267 1264 1261 1257 1252 1247 1242 1239 1235 1230 1224 1217 1208 1206 1205 1202 1199 1196 1195 1193 1191
1250 1252 1254 1256 1259 1261 1263 1265 1267 1268 1268 1269 1269 1268 1267 1266 1264 1261 1258 1255 1251 1247 1241 1236 1232 1228 1224 1219 1213 1206 1201 1198 1196 1194 1193 1193 1192 1191
1245 1247 1249 1251 1254 1256 1258 1260 1261 1262 1263 1263 1263 1262 1262 1260 1258 1255 1252 1249 1245 1241 1236 1231 1226 1222 1218 1214 1209 1203 1198 1195 1192 1191 1189 1188 1188 1187